Weather reports worldwide

Advertisment
Fair Isle, United Kingdom (3008): temperature & dewpoint: 18.06.2017 23:00:00 - 24.06.2017 23:00:00 (BST)Fair Isle, United Kingdom (3008): temperature 5cm: 18.06.2017 23:00:00 - 24.06.2017 23:00:00 (BST)Fair Isle, United Kingdom (3008): temperature -20cm & temperature -100cm: 18.06.2017 23:00:00 - 24.06.2017 23:00:00 (BST)Fair Isle, United Kingdom (3008): wind speed & gusts: 18.06.2017 23:00:00 - 24.06.2017 23:00:00 (BST)Fair Isle, United Kingdom (3008): wind direction: 18.06.2017 23:00:00 - 24.06.2017 23:00:00 (BST)Fair Isle, United Kingdom (3008): reduced air pressure: 18.06.2017 23:00:00 - 24.06.2017 23:00:00 (BST)Fair Isle, United Kingdom (3008): visibility: 18.06.2017 23:00:00 - 24.06.2017 23:00:00 (BST)Fair Isle, United Kingdom (3008): precipitation: 18.06.2017 23:00:00 - 24.06.2017 23:00:00 (BST)
Date & Time tt [°C] td [°C] tt 5cm [°C] tt -20cm [°C] tt -100cm [°C] ff [km/h] ff [kn] fx [km/h] fx [kn] dd ppp [hPa] vv [km] rr [mm]
24.06.2017 23:00:00 10,0 9,2 - - - 52 28 76 41 WSW 990,6 5 -
24.06.2017 22:00:00 10,1 9,1 - - - 55 30 85 46 WSW 990,4 5 1,0
24.06.2017 21:00:00 10,3 8,8 - - - 59 32 87 47 WSW 990,5 7 0,0
24.06.2017 20:00:00 10,7 8,5 - - - 54 29 80 43 SW 990,8 10 0,0
24.06.2017 19:00:00 10,4 8,8 - - - 63 34 89 48 SW 991,3 10 0,0
24.06.2017 18:00:00 10,6 8,6 - - - 61 33 87 47 SW 992,2 9 0,0
24.06.2017 17:00:00 10,2 8,5 - - - 55 30 91 49 SW 993,0 8 0,2
24.06.2017 16:00:00 10,3 8,6 - - - 57 31 81 44 SW 993,8 10 1,0
24.06.2017 15:00:00 11,2 8,3 - - - 44 24 65 35 SW 994,5 12 0,0
24.06.2017 14:00:00 11,4 8,4 - - - 46 25 74 40 SW 995,0 11 0,8
24.06.2017 13:00:00 10,5 7,9 - - - 44 24 65 35 SW 995,7 4,8 0,2
24.06.2017 12:00:00 11,3 8,6 - - - 41 22 70 38 SW 996,0 14 0,0
24.06.2017 11:00:00 10,9 8,6 - - - 41 22 61 33 SW 996,4 18 1,2
24.06.2017 10:00:00 11,1 8,7 - 13,4 11,5 39 21 63 34 SW 996,7 22 0,2
24.06.2017 09:00:00 11,2 7,8 - - - 42 23 70 38 SW 997,1 15 0,0
24.06.2017 08:00:00 10,5 8,0 - - - 46 25 63 34 SW 997,2 13 0,2
24.06.2017 07:00:00 10,6 8,2 - - - 41 22 54 29 SW 997,6 14 0,0
24.06.2017 06:00:00 10,1 8,1 - - - 35 19 52 28 SW 997,9 11 0,0
24.06.2017 05:00:00 9,7 8,0 - - - 39 21 65 35 SW 998,3 14 0,0
24.06.2017 04:00:00 9,9 7,4 - - - 44 24 63 34 SW 998,6 8 0,0
24.06.2017 03:00:00 10,2 8,6 - - - 39 21 67 36 WSW 999,0 10 4,6
24.06.2017 02:00:00 10,4 8,3 - - - 46 25 63 34 SW 999,4 14 0,4
24.06.2017 01:00:00 10,0 8,4 - - - 35 19 57 31 SW 1000,0 16 1,0
24.06.2017 00:00:00 10,9 8,3 - - - 39 21 57 31 SW 1000,3 9 0,0
23.06.2017 23:00:00 11,3 8,3 - - - 31 17 - - SSW 1000,7 13 0,0
23.06.2017 22:00:00 11,2 8,3 - - - - - 52 28 - 1001,1 14 0,0
23.06.2017 21:00:00 11,6 7,9 - - - 35 19 59 32 SW 1001,2 14 0,0
23.06.2017 20:00:00 11,8 8,0 - - - 41 22 54 29 WSW 1001,4 14 0,0
23.06.2017 19:00:00 12,7 8,3 - - - 35 19 54 29 WSW 1001,5 14 0,0
23.06.2017 18:00:00 12,5 9,4 - - - 35 19 55 30 SW 1001,5 12 0,0
23.06.2017 17:00:00 12,6 8,9 - - - 39 21 63 34 WSW 1001,1 14 0,0
23.06.2017 16:00:00 12,4 8,9 - - - 42 23 67 36 WSW 1000,4 13 0,0
23.06.2017 15:00:00 13,0 10,0 - - - 42 23 63 34 WSW 1000,2 19 0,0
23.06.2017 14:00:00 12,3 9,3 - - - 48 26 61 33 WSW 999,1 13 0,0
23.06.2017 13:00:00 12,8 10,5 - - - 41 22 57 31 WSW 998,5 14 0,0
23.06.2017 12:00:00 12,5 10,9 - - - 35 19 57 31 WSW 998,1 10 0,0
23.06.2017 11:00:00 12,8 11,9 - - - 34 18 48 26 SW 997,6 14 0,2
23.06.2017 10:00:00 11,5 11,0 - 13,5 11,5 31 17 - - SSW 997,4 2,5 0,2
23.06.2017 09:00:00 11,3 11,0 - - - 31 17 - - S 997,4 13 0,4
23.06.2017 08:00:00 11,1 10,9 - - - 31 17 - - S 997,5 8 2,8
23.06.2017 07:00:00 11,0 10,9 - - - 28 15 - - SSE 998,0 10 0,0
23.06.2017 06:00:00 11,1 10,9 - - - 29 16 - - SSE 999,0 9 0,0
23.06.2017 05:00:00 10,9 10,7 - - - 35 19 - - SSE 1000,1 11 0,0
23.06.2017 04:00:00 10,8 10,6 - - - 35 19 46 25 SSE 1001,0 12 0,2
23.06.2017 03:00:00 10,8 10,5 - - - 29 16 46 25 SSE 1001,9 12 0,8
23.06.2017 02:00:00 10,7 10,1 - - - 29 16 - - SSE 1003,1 12 0,6
23.06.2017 01:00:00 10,7 10,0 - - - 26 14 - - S 1004,3 14 0,4
23.06.2017 00:00:00 11,0 10,4 - - - 21 11 - - SSE 1004,9 30 0,0
22.06.2017 23:00:00 11,1 10,2 - - - 21 11 - - SSE 1005,1 40 0,0
22.06.2017 22:00:00 11,1 10,5 - - - 16 9 - - S 1005,7 25 0,0
22.06.2017 21:00:00 11,3 10,4 - - - 13 7 - - S 1006,1 40 0,0
22.06.2017 20:00:00 11,6 10,5 - - - 15 8 - - S 1006,8 35 0,0
22.06.2017 19:00:00 11,5 9,3 - - - 11 6 - - SSW 1007,1 30 0,0
22.06.2017 18:00:00 13,2 9,3 - - - 8 4 - - WSW 1007,1 25 0,0
22.06.2017 17:00:00 12,9 9,4 - - - 9 5 - - W 1007,5 26 0,0
22.06.2017 16:00:00 13,0 9,6 - - - 8 4 - - W 1007,6 22 0,0
22.06.2017 15:00:00 13,2 9,2 - - - 8 4 - - NNW 1007,8 30 0,0
22.06.2017 14:00:00 11,2 9,8 - - - 13 7 - - W 1008,2 10 0,0
22.06.2017 13:00:00 12,1 10,8 - - - 13 7 - - W 1007,6 29 0,0
22.06.2017 12:00:00 12,3 10,9 - - - 15 8 - - WSW 1007,7 19 0,0
22.06.2017 11:00:00 12,3 10,8 - - - 11 6 - - W 1007,5 13 0,0
22.06.2017 10:00:00 12,4 10,6 - 13,0 11,4 15 8 - - W 1007,3 0,3 0,0
22.06.2017 09:00:00 11,5 10,2 - - - 18 10 - - W 1006,9 25 0,0
22.06.2017 08:00:00 10,8 10,2 - - - 16 9 - - W 1006,7 19 0,0
22.06.2017 07:00:00 10,9 10,5 - - - 16 9 - - W 1006,6 12 0,0
22.06.2017 06:00:00 10,8 10,7 - - - 15 8 - - W 1006,5 8 0,0
22.06.2017 05:00:00 11,0 11,0 - - - 18 10 - - W 1006,6 12 0,0
22.06.2017 04:00:00 11,2 11,2 - - - 15 8 - - W 1006,4 2,9 0,0
22.06.2017 03:00:00 11,6 11,6 - - - 18 10 - - WSW 1006,3 0,4 0,0
22.06.2017 02:00:00 11,6 11,6 - - - 13 7 - - W 1006,3 5 0,0
22.06.2017 01:00:00 12,1 12,1 - - - 11 6 - - WSW 1006,7 1,9 0,0
22.06.2017 00:00:00 11,8 11,8 - - - 13 7 - - W 1006,7 7 0,0
21.06.2017 23:00:00 11,3 11,3 - - - 5 3 - - SSW 1006,6 4,3 0,0
21.06.2017 22:00:00 11,6 11,6 - - - 9 5 - - S 1006,7 3,3 0,0
21.06.2017 21:00:00 11,4 11,4 - - - 18 10 - - SE 1007,3 0,1 0,0
21.06.2017 20:00:00 11,5 11,5 - - - 22 12 - - SE 1007,4 0,1 0,0
21.06.2017 19:00:00 11,8 11,4 - - - 28 15 - - SE 1008,3 5 0,0
21.06.2017 18:00:00 12,1 11,4 - - - 26 14 - - SE 1008,8 10 0,0
21.06.2017 17:00:00 12,4 11,5 - - - 29 16 52 28 SE 1009,7 10 0,0
21.06.2017 16:00:00 12,0 11,4 - - - 29 16 - - SE 1011,0 12 0,0
21.06.2017 15:00:00 12,2 11,3 - - - 24 13 - - SE 1011,9 15 0,0
21.06.2017 14:00:00 12,1 11,3 - - - 26 14 - - SE 1012,8 14 0,0
21.06.2017 13:00:00 11,6 10,6 - - - 31 17 - - ESE 1013,7 15 0,0
21.06.2017 12:00:00 11,5 10,2 - - - 28 15 - - SE 1014,2 16 0,0
21.06.2017 11:00:00 11,3 9,7 - - - 28 15 - - SE 1015,1 25 0,0
21.06.2017 10:00:00 11,1 9,5 11,1 13,0 11,4 26 14 - - ESE 1015,7 30 0,0
21.06.2017 09:00:00 11,0 9,6 - - - 21 11 - - SE 1016,4 27 0,0
21.06.2017 08:00:00 10,8 9,4 - - - 22 12 - - ESE 1017,2 35 0,0
21.06.2017 07:00:00 10,6 9,4 - - - 16 9 - - ESE 1017,9 30 0,0
21.06.2017 06:00:00 10,2 9,1 - - - 11 6 - - SE 1018,4 45 0,0
21.06.2017 05:00:00 9,7 9,0 - - - 9 5 - - SE 1018,6 35 0,0
21.06.2017 04:00:00 8,6 8,1 - - - 8 4 - - SSE 1019,3 40 0,0
21.06.2017 03:00:00 8,7 8,4 - - - 11 6 - - S 1019,9 35 0,0
21.06.2017 02:00:00 9,0 8,7 - - - 8 4 - - SSW 1020,5 12 0,0
21.06.2017 01:00:00 9,2 8,7 - - - 11 6 - - SW 1021,0 21 0,0
21.06.2017 00:00:00 8,9 7,9 - - - 5 3 - - W 1021,1 28 0,0
20.06.2017 23:00:00 9,3 8,1 - - - 8 4 - - W 1021,4 14 0,0
20.06.2017 22:00:00 10,3 8,4 - - - 9 5 - - W 1021,4 14 0,0
20.06.2017 21:00:00 10,8 9,1 - - - 9 5 - - W 1021,4 17 0,0
20.06.2017 20:00:00 11,0 9,4 - - - 8 4 - - W 1021,7 11 0,0
20.06.2017 19:00:00 11,1 9,0 - - - 15 8 - - W 1021,5 17 0,0
20.06.2017 18:00:00 11,2 7,9 - - - 21 11 - - W 1021,4 30 0,0
20.06.2017 17:00:00 11,6 9,9 - - - 16 9 - - W 1021,4 18 0,0
20.06.2017 16:00:00 11,9 10,0 - - - 16 9 - - W 1021,5 21 0,0
20.06.2017 15:00:00 11,6 9,6 - - - 15 8 - - W 1021,4 19 0,0
20.06.2017 14:00:00 11,8 9,5 - - - 21 11 - - W 1021,0 19 0,0
20.06.2017 13:00:00 11,9 9,2 - - - 22 12 - - W 1020,9 23 0,0
20.06.2017 12:00:00 12,1 9,7 - - - 21 11 - - W 1020,8 20 0,0
20.06.2017 11:00:00 11,6 9,1 - - - 26 14 - - W 1020,3 22 0,0
20.06.2017 10:00:00 11,1 8,7 11,2 13,0 11,4 29 16 - - W 1019,9 21 0,0
20.06.2017 09:00:00 10,9 8,9 - - - 16 9 - - W 1019,6 18 0,0
20.06.2017 08:00:00 10,6 8,6 - - - 18 10 - - W 1019,1 23 0,0
20.06.2017 07:00:00 10,2 8,6 - - - 22 12 48 26 W 1018,8 22 0,0
20.06.2017 06:00:00 9,6 8,7 - - - 26 14 48 26 W 1018,6 26 0,0
20.06.2017 05:00:00 10,2 8,2 - - - 26 14 - - W 1018,4 20 0,0
20.06.2017 04:00:00 10,2 9,3 - - - 22 12 - - W 1018,4 12 0,0
20.06.2017 03:00:00 10,3 8,8 - - - 26 14 - - W 1018,4 16 0,0
20.06.2017 02:00:00 10,1 8,6 - - - 26 14 - - W 1018,3 21 0,0
20.06.2017 01:00:00 10,2 8,6 - - - 28 15 - - WSW 1018,2 22 0,0
20.06.2017 00:00:00 10,3 8,7 - - - 24 13 - - WSW 1018,2 17 0,0
19.06.2017 23:00:00 10,5 8,2 - - - 26 14 - - W 1018,1 23 0,0
19.06.2017 22:00:00 10,4 8,4 - - - 26 14 - - W 1018,0 20 0,0
19.06.2017 21:00:00 10,8 8,3 - - - 24 13 - - W 1017,8 26 0,0
19.06.2017 20:00:00 10,9 9,2 - - - 26 14 - - W 1017,7 17 0,0
19.06.2017 19:00:00 11,0 9,1 - - - 26 14 - - W 1017,7 20 0,0
19.06.2017 18:00:00 12,0 10,5 - - - 26 14 - - WSW 1017,3 14 0,0
19.06.2017 17:00:00 11,8 10,4 - - - 28 15 - - WSW 1017,4 10 0,0
19.06.2017 16:00:00 12,0 10,5 - - - 28 15 - - WSW 1017,4 14 0,0
19.06.2017 15:00:00 12,0 10,6 - - - 26 14 - - WSW 1017,6 15 0,0
19.06.2017 14:00:00 12,3 11,1 - - - 28 15 - - WSW 1017,8 14 0,0
19.06.2017 13:00:00 11,4 10,5 - - - 24 13 - - WSW 1018,1 17 0,0
19.06.2017 12:00:00 10,8 10,3 - - - 24 13 - - SW 1018,2 35 0,2
19.06.2017 11:00:00 10,4 10,0 - - - 21 11 - - SW 1018,3 10 0,6
19.06.2017 10:00:00 10,3 10,0 10,9 13,0 11,4 21 11 - - WSW 1018,5 9 1,2
19.06.2017 09:00:00 10,2 9,9 - - - 26 14 - - WSW 1018,7 10 0,8
19.06.2017 08:00:00 10,6 10,3 - - - 18 10 - - SW 1018,5 8 1,0
19.06.2017 07:00:00 10,6 10,2 - - - 16 9 - - SW 1018,9 10 0,0
19.06.2017 06:00:00 10,6 10,0 - - - 13 7 - - SW 1018,9 11 0,0
19.06.2017 05:00:00 10,5 10,1 - - - 21 11 - - SW 1019,4 12 0,0
19.06.2017 04:00:00 10,6 10,1 - - - 22 12 - - SW 1019,4 13 0,0
19.06.2017 03:00:00 10,5 9,9 - - - 22 12 - - SW 1019,7 16 0,0
19.06.2017 02:00:00 10,6 10,1 - - - 28 15 - - SW 1020,0 15 0,0
19.06.2017 01:00:00 10,3 9,9 - - - 26 14 - - SW 1020,0 13 0,0
19.06.2017 00:00:00 10,7 10,2 - - - 24 13 - - SW 1020,1 14 0,0
18.06.2017 23:00:00 10,4 9,7 - - - 16 9 - - SSW 1020,5 9 0,0

tt = temperature
td = dewpoint
tt 5cm = temperature 5cm
tt -20cm = temperature -20cm
tt -100cm = temperature -100cm
ff = wind speed
fx = gusts
dd = wind direction
ppp = reduced air pressure
vv = visibility
rr = precipitation

Next stations